Other Public Products
Issued by NWS Grand Forks, ND

Home | Current Version | Previous Version | Text Only | Print | Product List | Glossary Off
Versions: 1 2 3 4 5 6 7 8 9 10 11 12 13 14 15 16 17 18 19 20 21 22 23 24 25 26 27 28 29 30 31 32 33 34 35 36 37 38 39 40 41 42 43 44 45 46 47 48 49 50

000
FPUS83 KFGF 171210
OPUFGF
PRAIRIE TO PINES WEATHER ROUNDUP
NATIONAL WEATHER SERVICE EASTERN NORTH DAKOTA/GRAND FORKS ND
600 AM CST SAT FEB 17 2018

 **SATELLITE DATA USED TO AUGMENT SKY COVER AT AUTOMATED STATIONS**
 *****  WEATHER ACROSS EASTERN NORTH DAKOTA  *****

CITY           SKY/WX    TMP DP  RH WIND       PRES   REMARKS
GRAND FORKS    FAIR      14  10  84 W9        29.80R WCI   2
6HR MIN TEMP:  13; 6HR MAX TEMP:  25;

GRND FORKS AFB FAIR      10   7  85 W8        29.80R WCI  -1
GRND FORKS NWS   N/A     14  11  89 W6        29.77R WCI   5
BUXTON           N/A     13  12  98 W9          N/A  WCI   0
DEVILS LAKE    FAIR      12   8  84 W16       29.79R WCI  -5
6HR MIN TEMP:  12; 6HR MAX TEMP:  17;

FARGO          FAIR      17  13  84 SW9       29.82R WCI   6
6HR MIN TEMP:  15; 6HR MAX TEMP:  24;

WAHPETON ARPT  FAIR      14  10  85 W7        29.83S WCI   4
$$

 *****  WEATHER ACROSS CENTRAL AND WESTERN NORTH DAKOTA  *****

CITY           SKY/WX    TMP DP  RH WIND       PRES   REMARKS
JAMESTOWN      FAIR      14  11  87 W8        29.81R WCI   3
6HR MIN TEMP:  13; 6HR MAX TEMP:  23;

BISMARCK       FAIR      16  14  92 NW7       29.88R WCI   6
6HR MIN TEMP:  14; 6HR MAX TEMP:  22;

MINOT          FAIR      12   6  77 W13       29.84R WCI  -3
6HR MIN TEMP:  12; 6HR MAX TEMP:  23;

MINOT AFB      FAIR       9   4  82 NW12        N/A  WCI  -6
6HR MIN TEMP:   9; 6HR MAX TEMP:  19;

GARRISON         N/A     11   8  88 NW10      29.86R WCI  -3
6HR MIN TEMP:  10; 6HR MAX TEMP:  17;

WILLISTON      CLOUDY    13   8  81 W9        29.92R WCI   1
6HR MIN TEMP:  10; 6HR MAX TEMP:  18;

DICKINSON      FAIR      15  13  91 NW14      29.85R WCI   0
6HR MIN TEMP:  13; 6HR MAX TEMP:  23;

HETTINGER      FAIR      21  18  88 NW15      29.86R WCI   8
6HR MIN TEMP:  10; 6HR MAX TEMP:  24; 6HR PCP: TRACE;

$$

 *****  OTHER OBSERVATIONS NORTHEAST NORTH DAKOTA  *****

CITY           SKY/WX    TMP DP  RH WIND       PRES   REMARKS
WALHALLA       FAIR      10  10 100 CALM      29.77R
LANGDON        PTSUNNY    9   9 100 W12       29.74R WCI  -6
CAVALIER         N/A      9   7  92 W7        29.78R WCI  -3
GRAFTON        FAIR      10   7  85 W8        29.81R WCI  -1
CANDO          FAIR       7   7 100 W12       29.81R WCI  -9
FORT TOTTEN      N/A     13   9  85 NW6       29.95S WCI   4
ROLLA          FAIR      10   7  85 NW14      29.76R WCI  -5
RUGBY          FAIR       7   5  92 NW12      29.81R WCI  -9
 ***** THE ABOVE OBSERVATIONS ARE NON NWS ARE NOT QUALITY
        CONTROLLED AND MAY MIS-REPORT RAIN FOR SNOW...
$$

 *****  OTHER OBSERVATIONS SOUTHEAST NORTH DAKOTA *****

CITY           SKY/WX    TMP DP  RH WIND       PRES   REMARKS
COOPERSTOWN    FAIR      10   9  92 W12       29.80R WCI  -4
VALLEY CITY    FAIR      12  12 100 W9        29.83R WCI   0
OAKES            N/A     12  10  92 NW5       29.84R WCI   4
GWINNER          N/A     14  12  92 W10       29.84R WCI   1
SHEYENNE NWR     N/A     14  11  88 W6        29.95S WCI   5
BUFFALO          N/A     15  10  83 NE9         N/A  WCI   3
WYNDMERE       NOT AVBL
 ***** THE ABOVE OBSERVATIONS ARE NON NWS ARE NOT QUALITY
       CONTROLLED AND MAY MIS-REPORT RAIN FOR SNOW...
$$

  *****  WEATHER ACROSS NORTHERN MINNESOTA  *****

CITY           SKY/WX    TMP DP  RH WIND       PRES   REMARKS
FLAG ISLAND    FAIR       9   3  78 W13       29.68R WCI  -7
WARROAD        FAIR      10   7  85 W9        29.71R WCI  -2
ROSEAU         NOT AVBL
HALLOCK        FAIR       5   1  85 W6        29.77R WCI  -6
THF RVR FALLS  FAIR      13   8  81 W10       29.76  WCI   0
6HR MIN TEMP:  13; 6HR MAX TEMP:  21;

HALSTAD        NOT AVBL
FOSSTON        FAIR      10   7  85 SW5       29.77R WCI   2
BAUDETTE       CLOUDY    15   8  73 W7        29.68S WCI   5
6HR MIN TEMP:  15; 6HR MAX TEMP:  20;

WASKISH        MOCLDY    16  10  79 W12       29.73R WCI   3
CROOKSTON      FAIR      12   9  85 W10       29.80R WCI  -1
$$
  *****  WEATHER ACROSS CENTRAL AND WEST MINNESOTA  *****

CITY           SKY/WX    TMP DP  RH WIND       PRES   REMARKS
BEMIDJI        FAIR      15  11  85 W9        29.73S WCI   3
6HR MIN TEMP:  15; 6HR MAX TEMP:  21;

PARK RAPIDS    FAIR      11   7  84 W5        29.74F WCI   3
6HR MIN TEMP:  11; 6HR MAX TEMP:  20; 6HR PCP: TRACE;

WADENA         FAIR      16  14  93 W8        29.77S WCI   5
DETROIT LAKES  FAIR      19  16  86 W7        29.78S WCI  10
MOORHEAD       FAIR      14  10  85 W9        29.83R WCI   2
FERGUS FALLS   FAIR      16  12  86 NW5       29.82R WCI   9
ELBOW LAKE     FAIR      19  15  82 W8        29.81R WCI   9
6HR MIN TEMP:  18; 6HR MAX TEMP:  21;

MORRIS MN      FAIR      19  14  79 CALM      29.81R
STAPLES        FAIR      12  10  92 W6        29.78S WCI   3
WHEATON        FAIR      21  16  79 W7        29.84R WCI  13
$$
  *****  WEATHER ELSEWHERE ACROSS MINNESOTA  *****

CITY           SKY/WX    TMP DP  RH WIND       PRES   REMARKS
DULUTH         FAIR      15   9  76 W14       29.74F WCI   0
6HR MIN TEMP:  14; 6HR MAX TEMP:  15; 6HR PCP: TRACE;

INTRNTL FALLS  CLOUDY    18  13  80 W9        29.67S WCI   7
6HR MIN TEMP:  18; 6HR MAX TEMP:  22;

ELY            FAIR      12   9  85 SW6       29.68F WCI   3
CLOQUET        FAIR      14   9  79 SW8       29.76F WCI   3
BRAINERD       FAIR      15  10  80 S6        29.78S WCI   6
6HR MIN TEMP:  15; 6HR MAX TEMP:  17;

HIBBING        FAIR      10   6  84 SW3       29.73S
6HR MIN TEMP:  10; 6HR MAX TEMP:  14;

ALEXANDRIA     FAIR      20  15  81 W6        29.79S WCI  12
6HR MIN TEMP:  17; 6HR MAX TEMP:  22;

SAINT CLOUD    MOCLDY    17  13  84 CALM      29.83R
6HR MIN TEMP:  15; 6HR MAX TEMP:  19;

MINNEAPOLIS    CLOUDY    25  15  66 SW9       29.87F WCI  15
6HR MIN TEMP:  20; 6HR MAX TEMP:  25;

$$

  *****  WEATHER ACROSS SOUTH DAKOTA  *****

CITY           SKY/WX    TMP DP  RH WIND       PRES   REMARKS
SIOUX FALLS    CLOUDY    25  23  92 SW7       29.85R WCI  17
6HR MIN TEMP:  25; 6HR MAX TEMP:  28; 6HR PCP:  0.11;

BROOKINGS      FAIR      23  21  92 SW3       29.83R
WATERTOWN      FAIR      19  17  92 SW6       29.81R WCI  11
6HR MIN TEMP:  18; 6HR MAX TEMP:  24;

HURON          FAIR      17  16  95 W7        29.86R WCI   8
6HR MIN TEMP:  16; 6HR MAX TEMP:  27;

SISSETON         N/A     19  15  84 W7        29.81R WCI  10
ABERDEEN       FAIR      18  15  88 NW9       29.85R WCI   7
6HR MIN TEMP:  13; 6HR MAX TEMP:  23;

MITCHELL       FAIR      26  24  92 W5        29.88R WCI  20
PIERRE         FAIR      20  14  77 W14       29.86R WCI   7
6HR MIN TEMP:  12; 6HR MAX TEMP:  23;

MOBRIDGE       CLOUDY    21  15  78 NW6       29.83R WCI  13
RAPID CITY     FAIR      28  17  63 NW16      29.87R WCI  16
6HR MIN TEMP:  18; 6HR MAX TEMP:  28;

$$

  *****  SOME WEATHER IN NEARBY STATES *****

CITY           SKY/WX    TMP DP  RH WIND       PRES   REMARKS
GLASGOW MT     FAIR       7   3  84 NW10      29.99R WCI  -8
6HR MIN TEMP:   4; 6HR MAX TEMP:  15;

GREAT FALLS MT CLOUDY    11   9  92 SE3       29.98F FOG
6HR MIN TEMP:  11; 6HR MAX TEMP:  23; 6HR PCP:  0.04;

CHEYENNE WY    FAIR      28  10  46 W23G35    29.93R WCI  14
6HR MIN TEMP:  27; 6HR MAX TEMP:  30;

SCOTTSBLUFF NE FAIR      27  18  69 W8        29.93R WCI  19
6HR MIN TEMP:  26; 6HR MAX TEMP:  37;

OMAHA NE       CLOUDY    30  16  56 S12       29.90F WCI  20
6HR MIN TEMP:  27; 6HR MAX TEMP:  30;

DES MOINES IA  CLOUDY    27  12  53 SE10      29.96F WCI  17
6HR MIN TEMP:  22; 6HR MAX TEMP:  27;

DAVENPORT IA   MOCLDY    21  11  65 S9        30.10F WCI  11
6HR MIN TEMP:  15; 6HR MAX TEMP:  21;

CHICAGO IL     CLOUDY    18  10  71 S8        30.13F WCI   8
6HR MIN TEMP:  17; 6HR MAX TEMP:  20;

EAU CLAIRE WI  MOCLDY    16   7  67 S5        29.90S WCI   9
6HR MIN TEMP:   5; 6HR MAX TEMP:  16;

LA CROSSE WI   CLOUDY    21   9  59 SE10      29.98F WCI  10
6HR MIN TEMP:  17; 6HR MAX TEMP:  21;

$$

  *****  SOME NATIONAL WEATHER *****

CITY           SKY/WX    TMP DP  RH WIND       PRES   REMA



USA.gov is the U.S. government's official web portal to all federal, state and local government web resources and services.